Regional Weather Roundup
Issued by NWS

Home | Current Version | Previous Version | Text Only | Print | Product List | Glossary On
Versions: 1 2 3 4 5 6 7 8 9 10 11 12 13 14 15 16 17 18 19 20 21 22 23 24 25 26 27 28 29 30 31 32 33 34 35 36 37 38 39 40 41 42 43 44 45 46 47 48 49 50
000
ASUS46 KSEW 060610
RWRWA

WASHINGTON REGIONAL WEATHER ROUNDUP
NATIONAL WEATHER SERVICE SEATTLE WA
1100 PM PDT TUE MAY 05 2015

NOTE:"FAIR" INDICATES FEW OR NO CLOUDS BELOW 12,000 FEET WITH NO
SIGNIFICANT WEATHER AND/OR OBSTRUCTIONS TO VISIBILITY.

WAZ505-507>509-060700-
SEATTLE, TACOMA, EVERETT, AND VICINITY

CITY           SKY/WX    TMP DP  RH WIND       PRES   REMARKS
EVERETT        MOCLDY    45  42  89 S3        30.11S
6HR MIN TEMP:  44; 6HR MAX TEMP:  50; 6HR PCP:  0.01;

BOEING FIELD   CLOUDY    49  43  80 CALM      30.11S
6HR MIN TEMP:  48; 6HR MAX TEMP:  58; 6HR PCP:  0.12;

RENTON         MOCLDY    46  43  89 E3        30.11S
6HR MIN TEMP:  46; 6HR MAX TEMP:  61; 6HR PCP:  0.11;

SEATAC AIRPORT MOCLDY    46  44  93 SE7       30.10F
6HR MIN TEMP:  46; 6HR MAX TEMP:  58; 6HR PCP:  0.08;

JBLM-MCCHORD   MOCLDY    46  45  93 W3        30.10F
                                      6HR PCP:  0.16;

PUYALLUP       MOCLDY    43  43 100 CALM      30.10F
BREMERTON      CLOUDY    45  43  93 CALM      30.13F
6HR MIN TEMP:  45; 6HR MAX TEMP:  54; 6HR PCP:  0.13;

JBLM-FT LEWIS  MOCLDY    46  45  99 S5        30.10F
6HR MIN TEMP:  46; 6HR MAX TEMP:  54; 6HR PCP:  0.08;

TACOMA NARROWS MOCLDY    46  44  93 CALM      30.10F
6HR MIN TEMP:  46; 6HR MAX TEMP:  57; 6HR PCP:  0.04;

$$

WAZ001-503-506-510-514-515-060700-
NORTH INTERIOR

CITY           SKY/WX    TMP DP  RH WIND       PRES   REMARKS
BELLINGHAM     CLEAR     49  43  80 S8        30.10R
6HR MIN TEMP:  49; 6HR MAX TEMP:  56; 6HR PCP:  0.03;

FRIDAY HARBOR  CLEAR     46  42  86 W5        30.10S
6HR MIN TEMP:  45; 6HR MAX TEMP:  56;

EASTSOUND      CLEAR     46  45  93 S6        30.08S
PORT ANGELES   PTCLDY    43  40  89 CALM      30.11S
6HR MIN TEMP:  43; 6HR MAX TEMP:  52; 6HR PCP:  0.03;

NAS WHIDBEY    PTCLDY    48  42  80 SE5       30.11F
6HR MIN TEMP:  48; 6HR MAX TEMP:  58;

ARLINGTON      MOCLDY    45  37  76 S5        30.12F
6HR MIN TEMP:  45; 6HR MAX TEMP:  54;

BURLINGTON     MOCLDY    45  41  87 S3        30.11F
$$

WAZ020-022-039-040-504-511-512-060700-
SOUTHWEST INTERIOR

CITY           SKY/WX    TMP DP  RH WIND       PRES   REMARKS
SHELTON        CLOUDY    45  43  93 W3        30.10S
6HR MIN TEMP:  45; 6HR MAX TEMP:  56; 6HR PCP:  0.02;

OLYMPIA        LGT RAIN  47  45  93 W5        30.11S
6HR MIN TEMP:  47; 6HR MAX TEMP:  57; 6HR PCP:  0.04;

CHEHALIS       RAIN      48  46  93 VRB5      30.12S
KELSO          MOCLDY    52  39  62 CALM      30.15F
6HR MIN TEMP:  52; 6HR MAX TEMP:  57;

VANCOUVER      PTCLDY    52  39  61 N3        30.11S
6HR MIN TEMP:  51; 6HR MAX TEMP:  62;

SCAPPOOSE, OR  MOCLDY    50  40  68 CALM      30.10F
6HR MIN TEMP:  45; 6HR MAX TEMP:  61; 6HR PCP: TRACE;

PORTLAND, OR   MOCLDY    52  41  66 NW5       30.11F
6HR MIN TEMP:  52; 6HR MAX TEMP:  62;

$$

WAZ021-516-517-060700-
WASHINGTON COAST

CITY           SKY/WX    TMP DP  RH WIND       PRES   REMARKS
FORKS          CLEAR     42  42 100 CALM      30.12R
6HR MIN TEMP:  42; 6HR MAX TEMP:  54; 6HR PCP: TRACE;

HOQUIAM        CLOUDY    49  46  90 NE5       30.11F
6HR MIN TEMP:  49; 6HR MAX TEMP:  55; 6HR PCP: TRACE;

ASTORIA, OR    LGT RAIN  49  44  83 CALM      30.12R
6HR MIN TEMP:  47; 6HR MAX TEMP:  58; 6HR PCP: TRACE;

$$

WAZ019-023-024-040-518-519-060700-
CASCADE MOUNTAINS AND COLUMBIA GORGE

CITY           SKY/WX    TMP DP  RH WIND       PRES   REMARKS
TROUTDALE, OR  PTCLDY    52  40  63 CALM      30.10S
6HR MIN TEMP:  52; 6HR MAX TEMP:  61;

THE DALLES, OR CLEAR     50  39  66 NW6       30.06S
6HR MIN TEMP:  49; 6HR MAX TEMP:  64;

$$

WAZ026-027-041>044-520-521-060700-
EAST SLOPES

CITY           SKY/WX    TMP DP  RH WIND       PRES   REMARKS
OMAK           MOCLDY    45  34  65 NW8       29.97S
6HR MIN TEMP:  44; 6HR MAX TEMP:  57; 6HR PCP: TRACE;

WENATCHEE      PTCLDY    49  29  46 NW14      29.99S
6HR MIN TEMP:  49; 6HR MAX TEMP:  64;

ELLENSBURG     PTCLDY    45  33  63 NW21G29   29.99F
6HR MIN TEMP:  45; 6HR MAX TEMP:  58;

YAKIMA         PTCLDY    50  30  46 NW8       30.02R
6HR MIN TEMP:  49; 6HR MAX TEMP:  66;

$$

WAZ028-034-035-060700-
COLUMBIA BASIN

CITY           SKY/WX    TMP DP  RH WIND       PRES   REMARKS
EPHRATA        PTCLDY    50  25  37 NW12      29.94F
6HR MIN TEMP:  50; 6HR MAX TEMP:  66;

MOSES LAKE     PTCLDY    52  26  36 CALM      29.96S
6HR MIN TEMP:  50; 6HR MAX TEMP:  65;

PASCO          CLEAR     52  30  43 W9        30.00S
6HR MIN TEMP:  47; 6HR MAX TEMP:  70;

HERMISTON, OR  CLEAR     48  34  58 SW7       30.01S
6HR MIN TEMP:  48; 6HR MAX TEMP:  68;

$$

WAZ036>038-060700-
NORTHEAST WASHINGTON

CITY           SKY/WX    TMP DP  RH WIND       PRES   REMARKS
SPOKANE GEIGER PTCLDY    46  23  40 SW6       29.93F
6HR MIN TEMP:  46; 6HR MAX TEMP:  60;

SPOKANE FELTS  CLOUDY    45  30  55 CALM      29.94S
6HR MIN TEMP:  44; 6HR MAX TEMP:  63;

FAIRCHILD AFB  MOCLDY    42  23  46 SW8       29.93S
6HR MIN TEMP:  42; 6HR MAX TEMP:  59;

COEURDALENE,ID PTCLDY    43  27  52 S6        29.96R
6HR MIN TEMP:  43; 6HR MAX TEMP:  59;

DEER PARK      PTCLDY    34  25  69 N6        29.94S
6HR MIN TEMP:  34; 6HR MAX TEMP:  61;

$$

WAZ029>033-060700-
SOUTHEAST WASHINGTON

CITY           SKY/WX    TMP DP  RH WIND       PRES   REMARKS
PULLMAN        PTCLDY    44  29  55 CALM      29.98S
6HR MIN TEMP:  43; 6HR MAX TEMP:  58;

LEWISTON, ID   PTCLDY    51  26  37 SW7       29.96S
6HR MIN TEMP:  51; 6HR MAX TEMP:  65;

WALLA WALLA    PTCLDY    51  33  50 S8        30.00R
6HR MIN TEMP:  51; 6HR MAX TEMP:  66;

PENDLETON, OR  CLOUDY    50  31  48 W15       30.00R
6HR MIN TEMP:  49; 6HR MAX TEMP:  63;

$$


USA.gov is the U.S. government's official web portal to all federal, state and local government web resources and services.